Regional Weather Roundup
Issued by NWS

Home | Current Version | Previous Version | Graphics & Text | Print | Product List | Glossary On
Versions: 1 2 3 4 5 6 7 8 9 10 11 12 13 14 15 16 17 18 19 20 21 22 23 24 25 26 27 28 29 30 31 32 33 34 35 36 37 38 39 40 41 42 43 44 45 46 47 48 49 50
000
ASUS44 KMEG 261500
RWRTN
TENNESSEE HOURLY STATE WEATHER ROUNDUP
NATIONAL WEATHER SERVICE MEMPHIS TN
1000 AM CDT TUE JUL 26 2016

TNZ002-004-019-021-049-052-054-088>092-261600-
WEST TENNESSEE

CITY           SKY/WX    TMP DP  RH WIND       PRES   REMARKS
MEMPHIS INTL   MOSUNNY   89  75  63 S3        30.00F HX  99
NWS MEMPHIS      N/A     89 N/A N/A MISG        N/A
JACKSON        SUNNY     87  75  67 S5        30.02F HX  96
DYERSBURG      SUNNY    N/A N/A N/A MISG        N/A
PARIS          SUNNY     84  75  74 SW5       30.04S HX  92
LEXINGTON      SUNNY     86  75  70 SW3       30.03S HX  95
$$

TNZ008-025-027-028-033-062-065-066-261600-
NORTH MIDDLE TENNESSEE

CITY           SKY/WX    TMP DP  RH WIND       PRES   REMARKS
NASHVILLE      MOSUNNY   89  74  60 VRB3      30.05S HX  98
CLARKSVILLE    SUNNY     85  76  74 S5        30.03S HX  94
COOKEVILLE     SUNNY     86  75  70 S6        30.07S HX  95
CROSSVILLE     CLOUDY    81  72  74 VRB3      30.13S
$$

TNZ061-075-076-078-094-096-097-261600-
SOUTH MIDDLE TENNESSEE

CITY           SKY/WX    TMP DP  RH WIND       PRES   REMARKS
TULLAHOMA      SUNNY     82  72  69 SW6       30.10S
WINCHESTER     MOSUNNY   82  72  69 CALM      30.09R
MCMINNVILLE    SUNNY     82  75  78 VRB6      30.08S
SHELBYVILLE    SUNNY     84  75  74 VRB5      30.08S HX  92
$$

TNZ017-018-042-046-047-261600-
NORTHEAST TENNESSEE

CITY           SKY/WX    TMP DP  RH WIND       PRES   REMARKS
TRI CITIES     MOSUNNY   84  71  65 VRB3      30.11F
$$

TNZ012-013-036-069-073-074-261600-
CENTRAL EAST TENNESSEE

CITY           SKY/WX    TMP DP  RH WIND       PRES   REMARKS
KNOXVILLE      CLOUDY    84  72  67 W5        30.07S
OAK RIDGE      CLOUDY    83  73  72 W3        30.09S
GATLINBURG       N/A     88  70  55 CALM      30.07S HX  92
$$

TNZ083-085-099-261600-
SOUTHEAST TENNESSEE

CITY           SKY/WX    TMP DP  RH WIND       PRES   REMARKS
CHATTANOOGA    CLOUDY    83  71  67 NW3       30.07F
$$

SKY/WX REPORTED AS FAIR MEANS FEW OR NO CLOUDS BELOW
12 THOUSAND FEET.




USA.gov is the U.S. government's official web portal to all federal, state and local government web resources and services.